Waarnemingen

Advertentie
Mijn weer
AWG, Nederland (6208): temperatuur & dauwpunt: 05.12.2018 17:00:00 - 11.12.2018 17:00:00 (CET)AWG, Nederland (6208): windsnelheid & windstoten: 05.12.2018 17:00:00 - 11.12.2018 17:00:00 (CET)AWG, Nederland (6208): windrichting: 05.12.2018 17:00:00 - 11.12.2018 17:00:00 (CET)AWG, Nederland (6208): luchtdruk: 05.12.2018 17:00:00 - 11.12.2018 17:00:00 (CET)AWG, Nederland (6208): zicht: 05.12.2018 17:00:00 - 11.12.2018 17:00:00 (CET)
Datum & Tijd tt [°C] td [°C] ff [km/u] ff [kn] fx [km/u] fx [kn] dd ppp [hPa] vv [km]
11.12.2018 17:00:00 - - - - - - - - -
11.12.2018 16:00:00 7,6 1,3 25 14 32 18 N 1023,1 20
11.12.2018 15:00:00 7,9 1,3 34 18 36 19 N 1022,8 29
11.12.2018 14:00:00 8,1 1,2 31 17 36 19 N 1022,8 22
11.12.2018 13:00:00 8,1 1,4 35 19 36 19 N 1022,6 33
11.12.2018 12:00:00 8,0 0,7 35 19 43 23 NW 1022,7 29
11.12.2018 11:00:00 7,9 0,7 39 21 43 23 N 1022,4 23
11.12.2018 10:00:00 7,8 -0,2 44 24 47 25 NNW 1021,8 29
11.12.2018 09:00:00 7,4 2,4 46 25 47 25 NW 1021,5 24
11.12.2018 08:00:00 7,1 3,2 37 20 50 27 N 1021,3 21
11.12.2018 07:00:00 6,9 2,4 52 28 54 29 N 1021,3 22
11.12.2018 06:00:00 7,3 2,4 44 24 50 27 NNW 1021,0 15
11.12.2018 05:00:00 6,5 2,1 46 25 68 37 NNW 1020,8 13
11.12.2018 04:00:00 7,1 2,2 47 25 65 35 NW 1020,6 33
11.12.2018 03:00:00 6,3 0,9 36 19 68 37 NW 1020,7 18
11.12.2018 02:00:00 7,8 0,5 59 32 61 33 NW 1020,3 26
11.12.2018 01:00:00 7,4 1,9 65 35 68 37 NW 1020,5 21
11.12.2018 00:00:00 7,9 2,9 52 28 65 35 NNW 1019,8 18
10.12.2018 23:00:00 7,8 1,6 59 32 65 35 NW 1020,0 19
10.12.2018 22:00:00 8,1 1,1 59 32 65 35 NW 1019,7 19
10.12.2018 21:00:00 7,9 3,5 61 33 68 37 NW 1019,6 16
10.12.2018 20:00:00 7,6 3,4 57 31 68 37 NNW 1019,5 18
10.12.2018 19:00:00 7,9 2,8 59 32 68 37 NW 1018,9 16
10.12.2018 18:00:00 7,8 2,6 63 34 72 39 NW 1018,3 17
10.12.2018 17:00:00 7,4 2,8 70 38 72 39 NW 1017,8 16
10.12.2018 16:00:00 7,1 2,4 65 35 83 45 NW 1017,4 13
10.12.2018 15:00:00 6,3 2,8 57 31 79 43 NNW 1017,8 13
10.12.2018 14:00:00 7,7 -0,3 72 39 76 41 NW 1016,5 20
10.12.2018 13:00:00 7,5 0,7 67 36 76 41 NW 1016,2 23
10.12.2018 12:00:00 7,2 0,9 65 35 72 39 NW 1016,8 17
10.12.2018 11:00:00 6,1 -0,2 72 39 79 43 WNW 1016,7 22
10.12.2018 10:00:00 6,6 2,2 57 31 76 41 WNW 1016,2 21
10.12.2018 09:00:00 6,8 0,0 63 34 65 35 NW 1015,3 22
10.12.2018 08:00:00 6,3 2,7 67 36 72 39 WNW 1015,6 19
10.12.2018 07:00:00 5,9 2,0 61 33 79 43 WNW 1015,1 22
10.12.2018 06:00:00 7,5 1,2 57 31 72 39 WNW 1014,1 19
10.12.2018 05:00:00 7,2 -0,2 61 33 72 39 NW 1013,4 18
10.12.2018 04:00:00 7,2 1,5 57 31 68 37 WNW 1013,0 17
10.12.2018 03:00:00 7,4 1,5 67 36 68 37 WNW 1012,3 20
10.12.2018 02:00:00 7,1 3,1 61 33 68 37 NW 1012,2 15
10.12.2018 01:00:00 6,8 2,4 54 29 68 37 WNW 1011,2 20
10.12.2018 00:00:00 7,9 2,1 57 31 65 35 NW 1010,2 17
09.12.2018 23:00:00 7,0 0,4 55 30 79 43 WNW 1009,7 25
09.12.2018 22:00:00 7,6 2,2 52 28 68 37 NW 1008,9 20
09.12.2018 21:00:00 7,8 1,6 65 35 83 45 WNW 1007,8 20
09.12.2018 20:00:00 8,0 0,9 65 35 79 43 NW 1006,3 25
09.12.2018 19:00:00 8,4 2,4 67 36 86 47 WNW 1004,9 18
09.12.2018 18:00:00 8,4 2,2 67 36 68 37 NW 1003,5 18
09.12.2018 17:00:00 7,8 3,5 59 32 65 35 NW 1002,2 15
09.12.2018 16:00:00 8,5 3,8 57 31 72 39 NW 1000,7 15
09.12.2018 15:00:00 9,1 3,5 57 31 61 33 NW 998,7 15
09.12.2018 14:00:00 8,4 4,9 61 33 72 39 NW 997,5 11
09.12.2018 13:00:00 8,8 5,6 57 31 61 33 NW 996,1 22
09.12.2018 12:00:00 9,1 5,0 54 29 68 37 WNW 994,9 23
09.12.2018 11:00:00 8,8 5,5 57 31 65 35 WNW 993,6 13
09.12.2018 10:00:00 8,9 5,5 52 28 61 33 W 992,8 20
09.12.2018 09:00:00 9,2 5,3 54 29 61 33 WNW 991,5 18
09.12.2018 08:00:00 8,8 5,9 50 27 58 31 WNW 990,6 20
09.12.2018 07:00:00 9,1 5,4 42 23 47 25 WNW 989,7 22
09.12.2018 06:00:00 8,6 6,5 34 18 36 19 W 989,0 14
09.12.2018 05:00:00 8,7 6,1 34 18 40 21 WNW 988,2 19
09.12.2018 04:00:00 8,4 6,0 42 23 50 27 W 987,7 26
09.12.2018 03:00:00 8,2 6,2 39 21 50 27 WNW 987,3 18
09.12.2018 02:00:00 7,3 5,9 41 22 58 31 WNW 986,8 3,5
09.12.2018 01:00:00 8,6 7,2 39 21 72 39 WNW 986,2 10
09.12.2018 00:00:00 8,9 7,0 35 19 54 29 WNW 985,8 16
08.12.2018 23:00:00 6,8 5,9 18 10 22 12 ZZW 986,9 8
08.12.2018 22:00:00 6,7 5,7 15 8 18 10 WZW 987,5 8
08.12.2018 21:00:00 6,9 5,7 21 11 32 18 W 989,0 14
08.12.2018 20:00:00 8,2 6,9 35 19 40 21 ZW 990,2 3,1
08.12.2018 19:00:00 8,7 5,7 39 21 43 23 WZW 992,4 11
08.12.2018 18:00:00 9,2 5,3 44 24 54 29 WZW 993,5 11
08.12.2018 17:00:00 9,6 4,9 54 29 58 31 W 994,5 12
08.12.2018 16:00:00 9,4 5,3 55 30 58 31 W 994,6 11
08.12.2018 15:00:00 9,4 5,6 54 29 61 33 W 994,3 10
08.12.2018 14:00:00 9,5 5,7 57 31 61 33 W 994,2 10
08.12.2018 13:00:00 9,5 5,9 55 30 61 33 W 993,9 9
08.12.2018 12:00:00 9,4 5,8 52 28 58 31 W 994,0 10
08.12.2018 11:00:00 9,1 6,3 54 29 58 31 W 993,9 9
08.12.2018 10:00:00 8,9 6,4 46 25 54 29 W 993,7 9
08.12.2018 09:00:00 8,0 6,6 48 26 58 31 WZW 993,8 8
08.12.2018 08:00:00 8,4 5,6 52 28 54 29 WZW 994,0 11
08.12.2018 07:00:00 8,2 5,5 48 26 54 29 WZW 994,4 10
08.12.2018 06:00:00 8,0 5,3 48 26 50 27 ZW 995,0 12
08.12.2018 05:00:00 7,9 5,2 48 26 50 27 ZW 995,6 10
08.12.2018 04:00:00 7,9 4,6 46 25 47 25 ZW 996,4 15
08.12.2018 03:00:00 7,8 4,4 46 25 47 25 ZW 997,0 14
08.12.2018 02:00:00 7,7 3,8 41 22 43 23 WZW 997,3 14
08.12.2018 01:00:00 7,8 3,3 42 23 47 25 WZW 997,6 16
08.12.2018 00:00:00 7,6 3,6 42 23 54 29 WZW 997,6 11
07.12.2018 23:00:00 7,8 3,2 42 23 47 25 W 997,2 19
07.12.2018 22:00:00 8,5 2,7 52 28 54 29 W 996,8 18
07.12.2018 21:00:00 8,6 3,6 46 25 50 27 W 996,0 14
07.12.2018 20:00:00 8,6 4,5 37 20 47 25 W 994,8 14
07.12.2018 19:00:00 7,4 5,3 29 16 36 19 W 994,8 24
07.12.2018 18:00:00 7,3 6,3 50 27 47 25 W 993,6 7
07.12.2018 17:00:00 8,1 7,3 41 22 61 33 W 993,1 6
07.12.2018 16:00:00 10,3 9,5 54 29 65 35 - 992,5 2,6
07.12.2018 15:00:00 10,3 9,6 59 32 68 37 ZZW 993,4 2,0
07.12.2018 14:00:00 10,8 9,9 52 28 68 37 ZZW 995,0 3,0
07.12.2018 13:00:00 11,0 9,9 54 29 65 35 ZZW 996,5 7
07.12.2018 12:00:00 10,9 9,9 55 30 61 33 ZZW 998,1 7
07.12.2018 11:00:00 10,8 9,8 50 27 58 31 ZZW 999,5 8
07.12.2018 10:00:00 10,7 10,2 50 27 58 31 ZZW 1000,5 2,7
07.12.2018 09:00:00 10,7 10,2 44 24 54 29 - 1001,8 2,4
07.12.2018 08:00:00 10,5 10,1 42 23 50 27 - 1002,9 3,2
07.12.2018 07:00:00 10,8 10,6 37 20 40 21 ZZW 1004,0 4,3
07.12.2018 06:00:00 10,6 10,4 37 20 40 21 ZW 1005,1 3,0
07.12.2018 05:00:00 9,9 9,6 35 19 40 21 ZW 1006,2 3,7
07.12.2018 04:00:00 9,5 9,3 31 17 36 19 WZW 1007,2 2,3
07.12.2018 03:00:00 9,3 9,2 35 19 36 19 WZW 1007,8 3,8
07.12.2018 02:00:00 9,2 8,9 34 18 36 19 WZW 1008,3 4,4
07.12.2018 01:00:00 9,1 8,8 35 19 40 21 WZW 1008,9 4,1
07.12.2018 00:00:00 9,1 8,7 37 20 40 21 WZW 1009,3 5
06.12.2018 23:00:00 9,2 8,8 41 22 43 23 ZW 1009,4 6
06.12.2018 22:00:00 9,2 8,7 41 22 43 23 ZW 1009,6 9
06.12.2018 21:00:00 9,3 9,0 42 23 47 25 ZW 1010,0 6
06.12.2018 20:00:00 10,2 9,2 42 23 43 23 ZW 1010,4 12
06.12.2018 19:00:00 10,3 9,1 37 20 43 23 ZZW 1010,5 14
06.12.2018 18:00:00 10,0 8,8 41 22 43 23 ZZW 1010,9 16
06.12.2018 17:00:00 9,9 8,8 34 18 40 21 ZZW 1011,1 17
06.12.2018 16:00:00 9,8 9,1 42 23 43 23 ZW 1011,3 9
06.12.2018 15:00:00 9,7 9,2 39 21 40 21 ZW 1011,7 15
06.12.2018 14:00:00 9,4 8,9 29 16 32 18 ZW 1011,8 8
06.12.2018 13:00:00 8,8 8,7 28 15 29 16 WZW 1012,3 1,6
06.12.2018 12:00:00 8,9 8,7 26 14 25 14 WZW 1012,1 2,3
06.12.2018 11:00:00 8,9 8,8 29 16 32 18 WZW 1012,4 1,6
06.12.2018 10:00:00 9,2 9,2 29 16 32 18 - 1011,0 0,3
06.12.2018 09:00:00 8,6 8,6 22 12 25 14 ZW 1011,7 0,6
06.12.2018 08:00:00 8,6 8,3 22 12 25 14 ZW 1011,5 0,9
06.12.2018 07:00:00 9,0 8,7 28 15 36 19 ZZW 1010,4 1,0
06.12.2018 06:00:00 8,1 7,9 35 19 40 21 ZZW 1009,9 3,1
06.12.2018 05:00:00 7,8 7,2 34 18 40 21 ZZW 1009,9 1,1
06.12.2018 04:00:00 7,5 7,1 39 21 40 21 Z 1010,1 1,5
06.12.2018 03:00:00 7,3 6,8 42 23 43 23 Z 1010,5 2,9
06.12.2018 02:00:00 7,1 6,6 41 22 43 23 Z 1010,3 3,3
06.12.2018 01:00:00 7,0 6,2 41 22 43 23 Z 1010,9 2,4
06.12.2018 00:00:00 7,0 6,1 42 23 43 23 Z 1011,4 6
05.12.2018 23:00:00 6,9 6,0 35 19 40 21 Z 1011,9 5
05.12.2018 22:00:00 6,4 5,6 35 19 40 21 Z 1012,6 6
05.12.2018 21:00:00 5,8 5,1 39 21 40 21 Z 1012,9 3,0
05.12.2018 20:00:00 5,5 4,5 39 21 43 23 ZO 1013,7 3,6
05.12.2018 19:00:00 5,5 4,2 44 24 47 25 ZO 1014,3 3,9
05.12.2018 18:00:00 5,3 3,4 44 24 47 25 ZO 1015,1 11
05.12.2018 17:00:00 5,1 3,1 41 22 43 23 OZO 1016,3 11

tt = temperatuur
td = dauwpunt
ff = windsnelheid
fx = windstoten
dd = windrichting
ppp = luchtdruk
vv = zicht

Weerstations in de omgeving